YAOGAN-40 03A

Last updated on Tue Oct 07 2025 00:02:06 GMT+0000 (Coordinated Universal Time)

1 65544U 25199A 25279.48460454 .00000541 00000+0 21707-3 0 9999 2 65544 85.9929 157.6984 0013944 154.6608 205.5269 14.26286552 4250

Satellite not in orbit

YAOGAN-40 03A